Tiempo cada hora Cayo Largo

Hoy, 19 Enero, Martes

Tiempo Temperatura Precipitaciones Viento Presión Humedad
00:00 +19°C° 0 mm 3 mps 763 mmHg 93%
01:00 +19°C° 0 mm 3 mps 763 mmHg 92%
02:00 +19°C° 0 mm 3 mps 763 mmHg 92%
03:00 +18°C° 0 mm 3 mps 762 mmHg 92%
04:00 +18°C° 0 mm 3 mps 763 mmHg 92%
05:00 +18°C° 0 mm 3 mps 763 mmHg 91%
06:00 +18°C° 0 mm 3 mps 764 mmHg 91%
07:00 +20°C° 0 mm 4 mps 764 mmHg 85%
08:00 +22°C° 0 mm 5 mps 765 mmHg 78%
09:00 +24°C° 0 mm 6 mps 765 mmHg 72%
10:00 +26°C° 0 mm 5 mps 765 mmHg 70%
11:00 +26°C° 0 mm 5 mps 765 mmHg 68%
12:00 +27°C° 0 mm 5 mps 765 mmHg 65%
13:00 +27°C° 0 mm 5 mps 764 mmHg 66%
14:00 +27°C° 0 mm 5 mps 764 mmHg 67%
15:00 +27°C° 0 mm 5 mps 763 mmHg 68%
16:00 +25°C° 0 mm 5 mps 764 mmHg 73%
17:00 +23°C° 0 mm 4 mps 764 mmHg 78%
18:00 +22°C° 0 mm 4 mps 764 mmHg 83%
19:00 +21°C° 0 mm 4 mps 765 mmHg 84%
20:00 +20°C° 0 mm 4 mps 765 mmHg 86%
21:00 +20°C° 0 mm 4 mps 765 mmHg 87%
22:00 +19°C° 0 mm 4 mps 765 mmHg 88%
23:00 +19°C° 0 mm 4 mps 765 mmHg 90%

Mañana, 20 Enero, Miércoles

Tiempo Temperatura Precipitaciones Viento Presión Humedad
00:00 +19°C° 0 mm 3 mps 765 mmHg 91%
01:00 +19°C° 0 mm 3 mps 764 mmHg 91%
02:00 +18°C° 0 mm 3 mps 764 mmHg 92%
03:00 +18°C° 0 mm 3 mps 764 mmHg 92%
04:00 +18°C° 0 mm 3 mps 764 mmHg 92%
05:00 +18°C° 0 mm 3 mps 764 mmHg 92%
06:00 +18°C° 0 mm 3 mps 764 mmHg 92%
07:00 +20°C° 0 mm 4 mps 765 mmHg 84%
08:00 +22°C° 0 mm 4 mps 765 mmHg 76%
09:00 +25°C° 0 mm 5 mps 765 mmHg 69%
10:00 +26°C° 0 mm 5 mps 765 mmHg 66%
11:00 +27°C° 0 mm 5 mps 765 mmHg 63%
12:00 +27°C° 0 mm 5 mps 764 mmHg 60%
13:00 +27°C° 0 mm 5 mps 764 mmHg 60%
14:00 +27°C° 0 mm 5 mps 763 mmHg 61%
15:00 +26°C° 0 mm 5 mps 763 mmHg 62%
16:00 +25°C° 0 mm 5 mps 763 mmHg 68%
17:00 +22°C° 0 mm 5 mps 763 mmHg 74%
18:00 +20°C° 0 mm 4 mps 763 mmHg 79%
19:00 +20°C° 0 mm 4 mps 763 mmHg 82%
20:00 +19°C° 0 mm 4 mps 763 mmHg 84%
21:00 +18°C° 0 mm 4 mps 763 mmHg 86%
22:00 +18°C° 0 mm 4 mps 763 mmHg 88%
23:00 +18°C° 0 mm 3 mps 763 mmHg 89%

Pasado mañana, 21 Enero, Jueves

Tiempo Temperatura Precipitaciones Viento Presión Humedad
00:00 +17°C° 0 mm 3 mps 763 mmHg 90%
01:00 +17°C° 0 mm 3 mps 763 mmHg 91%
02:00 +17°C° 0 mm 3 mps 763 mmHg 92%
03:00 +17°C° 0 mm 3 mps 762 mmHg 92%
04:00 +17°C° 0 mm 3 mps 763 mmHg 93%
05:00 +17°C° 0 mm 3 mps 763 mmHg 93%
06:00 +17°C° 0 mm 3 mps 763 mmHg 93%
07:00 +19°C° 0 mm 3 mps 763 mmHg 87%
08:00 +20°C° 0 mm 4 mps 763 mmHg 80%
09:00 +22°C° 0 mm 5 mps 763 mmHg 73%
10:00 +23°C° 0 mm 5 mps 763 mmHg 68%
11:00 +26°C° 0 mm 4 mps 762 mmHg 63%
12:00 +27°C° 0 mm 4 mps 762 mmHg 59%
13:00 +26°C° 0 mm 4 mps 762 mmHg 59%
14:00 +26°C° 0 mm 4 mps 761 mmHg 59%
15:00 +26°C° 0 mm 4 mps 761 mmHg 60%
16:00 +24°C° 0 mm 3 mps 761 mmHg 67%
17:00 +23°C° 0 mm 2 mps 761 mmHg 74%
18:00 +21°C° 0 mm 1 mps 761 mmHg 81%
19:00 +19°C° 0 mm 2 mps 761 mmHg 83%
20:00 +19°C° 0 mm 2 mps 761 mmHg 86%
21:00 +18°C° 0 mm 2 mps 761 mmHg 89%
22:00 +18°C° 0 mm 2 mps 761 mmHg 91%
23:00 +18°C° 0 mm 2 mps 760 mmHg 93%

22 Enero, Viernes

Tiempo Temperatura Precipitaciones Viento Presión Humedad
00:00 +18°C° 0 mm 2 mps 760 mmHg 94%
01:00 +18°C° 0 mm 2 mps 760 mmHg 95%
02:00 +18°C° 0 mm 2 mps 760 mmHg 95%
03:00 +18°C° 0 mm 2 mps 759 mmHg 95%
04:00 +18°C° 0 mm 2 mps 760 mmHg 95%
05:00 +18°C° 0 mm 2 mps 760 mmHg 95%
06:00 +18°C° 0 mm 2 mps 760 mmHg 94%
07:00 +20°C° 0 mm 2 mps 760 mmHg 88%
08:00 +21°C° 0 mm 2 mps 761 mmHg 82%
09:00 +24°C° 0 mm 2 mps 761 mmHg 76%
10:00 +25°C° 0 mm 2 mps 761 mmHg 71%
11:00 +27°C° 0 mm 2 mps 761 mmHg 65%
12:00 +28°C° 0 mm 2 mps 760 mmHg 60%
13:00 +28°C° 0 mm 2 mps 760 mmHg 60%
14:00 +28°C° 0 mm 3 mps 759 mmHg 59%
15:00 +28°C° 0 mm 3 mps 759 mmHg 59%
16:00 +26°C° 0 mm 2 mps 759 mmHg 69%
17:00 +24°C° 0 mm 2 mps 759 mmHg 79%
18:00 +22°C° 0 mm 1 mps 760 mmHg 89%
19:00 +22°C° 0 mm 1 mps 760 mmHg 91%
20:00 +22°C° 0 mm 1 mps 760 mmHg 92%
21:00 +21°C° 0 mm 1 mps 761 mmHg 93%
22:00 +20°C° 0 mm 2 mps 761 mmHg 94%
23:00 +20°C° 0 mm 2 mps 760 mmHg 94%

23 Enero, Sábado

Tiempo Temperatura Precipitaciones Viento Presión Humedad
00:00 +20°C° 0 mm 2 mps 760 mmHg 94%
01:00 +20°C° 0 mm 2 mps 760 mmHg 94%
02:00 +20°C° 0 mm 2 mps 760 mmHg 94%
03:00 +20°C° 0 mm 2 mps 760 mmHg 94%
04:00 +19°C° 0 mm 2 mps 760 mmHg 94%
05:00 +20°C° 0 mm 1 mps 760 mmHg 94%
06:00 +20°C° 0 mm 1 mps 761 mmHg 94%
07:00 +21°C° 0 mm 2 mps 761 mmHg 88%
08:00 +24°C° 0 mm 2 mps 762 mmHg 82%
09:00 +26°C° 0 mm 2 mps 762 mmHg 76%
10:00 +27°C° 0 mm 2 mps 762 mmHg 71%
11:00 +28°C° 0 mm 2 mps 761 mmHg 65%
12:00 +29°C° 0 mm 3 mps 761 mmHg 60%
13:00 +29°C° 0 mm 2 mps 761 mmHg 60%
14:00 +29°C° 0 mm 2 mps 760 mmHg 59%
15:00 +29°C° 0 mm 2 mps 760 mmHg 59%
16:00 +27°C° 0 mm 2 mps 760 mmHg 67%
17:00 +25°C° 0 mm 2 mps 760 mmHg 75%
18:00 +23°C° 0 mm 2 mps 761 mmHg 84%
19:00 +21°C° 0 mm 2 mps 761 mmHg 87%
20:00 +21°C° 0 mm 2 mps 761 mmHg 89%
21:00 +20°C° 0 mm 2 mps 762 mmHg 92%
22:00 +20°C° 0 mm 2 mps 761 mmHg 93%
23:00 +20°C° 0 mm 2 mps 761 mmHg 95%

24 Enero, Domingo

Tiempo Temperatura Precipitaciones Viento Presión Humedad
00:00 +20°C° 0 mm 2 mps 761 mmHg 96%
01:00 +20°C° 0 mm 2 mps 761 mmHg 96%
02:00 +20°C° 0 mm 2 mps 761 mmHg 96%
03:00 +20°C° 0 mm 2 mps 760 mmHg 97%
04:00 +20°C° 0 mm 2 mps 761 mmHg 97%
05:00 +20°C° 0 mm 3 mps 761 mmHg 97%
06:00 +19°C° 0 mm 3 mps 761 mmHg 97%
07:00 +21°C° 0 mm 3 mps 761 mmHg 90%
08:00 +23°C° 0 mm 4 mps 762 mmHg 83%
09:00 +26°C° 0 mm 4 mps 762 mmHg 77%
10:00 +26°C° 0 mm 4 mps 762 mmHg 72%
11:00 +27°C° 0 mm 4 mps 761 mmHg 68%
12:00 +28°C° 0 mm 4 mps 761 mmHg 63%
13:00 +28°C° 0 mm 4 mps 760 mmHg 62%
14:00 +28°C° 0 mm 3 mps 760 mmHg 61%
15:00 +28°C° 0 mm 3 mps 759 mmHg 60%
16:00 +26°C° 0 mm 3 mps 760 mmHg 67%
17:00 +24°C° 0 mm 2 mps 760 mmHg 75%
18:00 +21°C° 0 mm 2 mps 760 mmHg 83%
19:00 +21°C° 0 mm 2 mps 760 mmHg 85%
20:00 +20°C° 0 mm 2 mps 760 mmHg 87%
21:00 +20°C° 0 mm 2 mps 761 mmHg 89%
22:00 +20°C° 0 mm 2 mps 760 mmHg 91%
23:00 +19°C° 0 mm 3 mps 760 mmHg 93%
Mostrar más